User: anonymous   Login
Location: Newark
(33.4453°N, 112.0669°W)
Time: 11:32:39
(UTC+00:00)
Language:

LightSail 2 - Orbit

View from above orbital plane
View from above orbital plane
View from above satellite
View from above satellite

Ground track
Ground track

The orbit data is extracted from the following two-line orbital elements,

1 44420U 19036AC  20050.68012735  .00005251  00000-0  11593-2 0  9996
2 44420  24.0093 137.6664 0015652 302.3511  57.5466 14.54474357 32991
Epoch (UTC): 19 February 2020 16:19:23
Eccentricity: 0.0015652
inclination: 24.0093°
perigee height: 700 km
apogee height: 722 km
right ascension of ascending node: 137.6664°
argument of perigee: 302.3511°
revolutions per day: 14.54474357
mean anomaly at epoch: 57.5466°
orbit number at epoch: 3299

The dashed part of the orbit path shows where the satellite is in the earth's shadow,  

DLR